Wind_Speed
32 32 31 29 28 25 23 21 20 19 19 18 17 16 15 15 14 12 11 11 12 12 12 10 8 8 7 7 6 6 6 8 9 10 10 10 11 14
31 30 30 30 28 26 23 22 20 19 18 17 16 16 15 15 15 13 9 7 7 8 9 10 10 9 8 7 7 7 8 9 11 11 11 11 12 14
31 30 31 30 28 27 25 23 21 20 19 18 17 17 16 16 16 13 10 7 7 9 10 11 11 9 9 9 8 9 10 11 12 13 12 12 13 14
30 30 31 31 30 28 27 25 24 22 21 19 19 18 17 17 17 14 11 10 10 11 12 12 12 11 11 11 11 12 13 13 14 14 13 13 13 15
29 29 31 32 31 30 28 27 25 24 23 21 19 19 18 18 17 14 13 13 14 14 15 15 16 16 15 16 16 16 15 15 15 14 13 13 14 17
28 28 30 32 32 31 29 27 25 25 24 23 21 19 19 18 17 16 15 16 17 18 19 20 20 21 21 20 20 20 19 18 17 16 15 15 16 18
27 27 29 30 31 31 29 27 25 25 24 24 23 21 19 18 18 17 16 16 17 18 19 21 23 23 23 23 22 22 21 20 19 18 17 17 18 19
27 27 27 29 30 30 29 27 25 24 23 23 24 23 21 20 19 17 16 16 16 15 17 19 21 23 24 25 24 24 22 22 21 20 20 20 20 20
27 28 28 29 29 29 29 28 27 27 25 25 24 24 23 21 20 19 18 17 16 16 16 17 18 21 23 25 26 26 25 24 23 22 21 21 21 21
26 26 27 27 28 28 28 28 28 28 27 27 26 25 25 24 23 21 20 20 20 20 20 20 19 20 21 24 26 27 27 26 25 24 23 22 22 22
25 25 25 26 26 27 27 28 28 28 28 28 28 28 27 27 27 26 26 25 24 24 23 23 23 23 22 22 23 25 26 27 27 26 25 25 24 24
28 28 28 28 27 27 27 27 28 27 27 28 29 29 30 29 30 30 30 30 30 29 28 27 26 26 26 24 24 25 26 27 28 28 28 27 27 26
33 33 32 32 31 31 30 30 30 29 29 29 30 31 32 32 32 32 32 33 33 33 32 32 30 29 28 27 26 25 26 27 28 29 29 29 29 29
38 37 37 36 36 35 35 34 33 32 32 32 32 33 34 35 36 35 35 35 36 36 35 34 34 33 31 30 28 27 26 27 28 28 28 29 29 28
42 42 41 40 39 39 39 37 36 35 35 35 35 35 36 36 38 38 38 38 38 37 36 35 35 34 33 32 31 30 29 28 28 27 26 26 26 26
39 41 41 41 41 40 40 40 40 39 38 37 37 37 37 37 38 39 40 40 40 40 39 38 37 37 36 35 33 32 30 29 27 26 24 23 22 22
29 31 33 35 36 37 37 37 37 37 38 38 38 38 38 38 38 38 39 40 40 40 39 38 38 37 37 35 34 32 30 29 27 25 24 23 21 21
29 29 28 29 30 31 32 33 34 34 35 36 36 37 38 38 37 37 38 38 38 38 37 37 37 37 37 36 35 33 32 30 29 27 25 24 23 22
34 35 34 33 33 33 33 34 34 34 34 34 35 36 37 38 39 38 38 39 39 40 39 39 40 40 40 40 38 37 35 33 32 30 28 27 26 25
40 40 41 41 40 40 39 38 38 37 36 36 37 38 39 39 39 39 39 40 41 42 42 43 43 43 44 44 43 42 40 37 36 34 33 31 30 29
46 47 47 47 47 46 46 45 44 43 42 41 40 40 41 41 42 41 41 41 42 43 44 44 45 46 46 46 46 46 44 42 41 39 38 36 35 33
49 50 51 52 52 52 52 51 50 48 47 46 45 44 44 43 44 44 44 43 43 43 44 44 45 45 46 46 47 47 47 47 46 44 43 42 40 39
50 51 53 53 54 54 54 54 53 52 51 50 50 48 47 47 47 47 47 47 47 47 47 47 47 47 48 49 49 50 50 50 49 49 48 47 45 43
Wind_Direction
272 267 262 260 262 267 273 276 277 276 275 277 281 285 285 281 280 284 287 277 262 254 246 234 216 195 180 183 196 211 232 253 266 273 276 284 292 301
269 262 256 255 257 262 266 270 273 271 270 272 278 285 286 282 279 275 277 270 247 235 218 199 186 182 187 195 210 229 245 260 271 278 284 292 300 309
265 258 252 251 253 257 261 264 267 268 268 271 277 284 282 283 279 268 259 245 224 212 204 196 192 197 207 217 230 242 255 265 272 279 286 293 301 312
261 254 248 247 250 254 257 260 263 265 264 267 273 277 276 277 276 264 246 232 222 216 214 212 211 216 224 235 243 250 258 265 273 279 285 292 300 312
258 252 246 245 248 252 256 259 260 261 260 262 265 268 269 269 265 258 243 232 226 225 226 228 230 231 235 242 248 255 263 269 273 279 284 289 298 309
257 250 246 245 248 250 253 256 256 256 257 257 257 260 262 261 254 255 242 234 229 230 232 234 236 238 240 245 250 255 262 267 270 273 278 284 294 306
255 249 245 244 247 249 251 251 252 253 254 253 252 252 255 256 250 249 242 238 237 238 238 238 239 241 242 245 247 252 258 262 265 269 275 281 291 302
251 247 243 242 243 246 247 246 248 251 251 248 246 246 250 252 248 243 241 243 246 247 249 250 250 246 245 244 246 250 256 260 263 267 273 280 289 300
250 247 245 244 243 245 245 246 248 249 247 246 245 245 247 249 247 241 238 236 243 253 259 260 259 256 256 253 252 251 253 258 261 266 272 279 287 297
249 247 247 246 245 245 246 248 249 247 245 244 244 245 246 247 246 244 242 242 245 251 256 257 256 254 254 255 255 254 254 256 261 266 271 277 284 292
248 246 246 246 245 245 246 247 248 247 245 243 243 243 244 244 244 244 245 246 249 253 254 254 253 252 249 247 248 251 255 260 264 268 272 277 284 290
249 248 246 245 245 245 246 246 247 246 246 246 246 246 244 243 243 243 245 247 249 252 254 255 254 252 251 250 250 253 258 265 269 272 274 278 283 287
251 250 249 249 247 247 248 247 247 247 248 249 250 250 248 246 244 244 245 247 250 252 254 255 255 254 252 252 252 255 262 267 271 273 275 277 279 282
252 251 250 250 251 250 250 251 251 251 252 253 253 253 252 250 248 247 247 248 250 253 255 255 254 254 253 253 254 256 259 265 270 274 276 275 275 277
253 252 251 251 252 252 252 254 255 257 257 257 256 256 255 253 251 249 249 249 250 251 252 253 253 253 253 253 254 256 260 263 267 271 274 275 275 275
257 256 254 252 253 254 255 257 259 260 260 259 258 257 256 255 253 252 251 250 251 251 251 251 251 251 252 252 253 256 258 262 265 267 269 272 273 274
261 260 260 258 257 258 259 260 261 261 261 260 258 256 255 254 254 253 252 252 252 252 252 251 251 251 251 251 251 253 254 256 259 263 265 267 268 270
265 266 267 267 266 264 263 263 262 262 262 261 259 257 255 254 252 251 252 252 252 252 251 250 250 250 250 251 251 251 252 253 255 258 262 266 268 269
261 264 267 268 269 269 270 269 267 265 263 262 260 259 258 256 254 252 251 251 252 252 251 250 250 250 250 250 251 252 252 253 254 256 258 262 266 270
257 261 264 266 267 269 270 271 270 270 268 266 264 262 260 258 257 255 254 253 252 252 252 252 252 251 252 252 252 251 252 253 255 256 257 259 262 266
256 258 260 262 264 265 267 268 268 269 269 268 267 266 264 262 261 259 257 255 254 253 252 251 252 252 253 253 253 253 252 251 252 253 255 258 260 263
258 258 259 259 260 262 263 265 266 266 267 267 266 265 264 264 263 261 258 256 255 254 254 253 251 251 251 252 253 254 253 252 251 250 251 252 256 260
258 258 258 258 259 260 261 262 263 263 264 264 263 262 261 260 260 259 258 257 256 255 255 255 254 253 252 251 252 253 253 253 252 251 250 249 250 253
Height
5820 5820 5820 5821 5823 5823 5822 5821 5821 5820 5820 5819 5819 5818 5818 5817 5817 5816 5815 5814 5814 5814 5814 5815 5816 5818 5819 5820 5822 5823 5823 5824 5825 5825 5825 5825 5825 5824
5811 5811 5812 5814 5816 5816 5816 5815 5815 5815 5815 5815 5815 5814 5814 5814 5813 5813 5812 5811 5811 5812 5813 5814 5815 5817 5819 5820 5821 5821 5822 5823 5823 5823 5823 5823 5822 5820
5802 5803 5805 5807 5808 5809 5810 5810 5810 5810 5810 5810 5810 5810 5810 5810 5810 5809 5809 5809 5809 5810 5811 5813 5814 5816 5817 5818 5819 5820 5820 5821 5821 5820 5820 5819 5818 5817
5793 5795 5797 5799 5801 5802 5803 5803 5804 5804 5805 5805 5805 5806 5806 5806 5806 5806 5806 5806 5807 5808 5809 5811 5812 5814 5815 5816 5817 5817 5818 5818 5818 5818 5817 5816 5815 5813
5785 5787 5789 5791 5793 5794 5795 5796 5797 5798 5799 5800 5800 5801 5801 5802 5802 5802 5803 5803 5804 5805 5807 5808 5810 5811 5812 5813 5814 5815 5815 5815 5815 5815 5814 5813 5811 5810
5777 5779 5781 5783 5785 5787 5788 5789 5790 5791 5793 5794 5795 5796 5796 5797 5797 5798 5799 5800 5801 5802 5803 5804 5806 5807 5809 5810 5810 5811 5811 5811 5811 5811 5810 5809 5807 5806
5769 5771 5773 5775 5778 5780 5781 5783 5784 5785 5786 5787 5789 5790 5791 5791 5792 5793 5794 5795 5796 5797 5798 5800 5801 5803 5804 5805 5805 5806 5807 5807 5807 5807 5806 5804 5803 5802
5762 5763 5765 5767 5770 5772 5774 5776 5777 5778 5780 5781 5782 5784 5785 5786 5787 5788 5789 5791 5792 5793 5794 5795 5796 5797 5798 5799 5800 5801 5802 5802 5802 5802 5801 5800 5799 5798
5755 5757 5758 5760 5762 5764 5766 5768 5770 5772 5773 5775 5776 5777 5779 5781 5782 5783 5785 5786 5787 5788 5789 5789 5790 5791 5792 5793 5794 5795 5797 5797 5798 5797 5796 5796 5795 5793
5748 5750 5751 5753 5755 5757 5759 5761 5762 5764 5766 5768 5770 5771 5773 5774 5776 5777 5779 5781 5782 5783 5784 5784 5785 5785 5786 5787 5788 5789 5791 5792 5792 5792 5792 5791 5790 5789
5741 5743 5744 5746 5748 5749 5751 5753 5754 5756 5758 5760 5762 5764 5765 5767 5769 5771 5772 5774 5776 5777 5778 5779 5779 5779 5780 5780 5781 5783 5784 5785 5786 5786 5786 5786 5785 5784
5734 5736 5737 5739 5741 5742 5744 5745 5747 5748 5750 5752 5754 5756 5758 5759 5761 5763 5765 5767 5769 5771 5772 5772 5773 5774 5774 5775 5775 5776 5778 5779 5780 5780 5780 5780 5780 5779
5725 5727 5729 5731 5733 5735 5737 5738 5739 5741 5742 5744 5745 5747 5749 5751 5753 5754 5756 5758 5760 5762 5764 5765 5766 5767 5767 5768 5769 5770 5771 5772 5773 5773 5774 5774 5773 5773
5715 5717 5719 5722 5724 5726 5728 5729 5731 5732 5734 5735 5736 5738 5739 5741 5743 5745 5747 5748 5750 5753 5755 5756 5758 5759 5760 5761 5762 5763 5764 5765 5766 5766 5766 5766 5767 5767
5704 5706 5709 5711 5713 5716 5718 5720 5721 5723 5724 5726 5727 5728 5730 5731 5733 5735 5737 5738 5740 5743 5745 5747 5749 5751 5752 5753 5754 5755 5757 5758 5759 5759 5759 5759 5760 5760
5694 5696 5698 5700 5702 5704 5706 5709 5710 5712 5714 5715 5717 5718 5719 5721 5723 5725 5726 5728 5730 5733 5735 5737 5739 5742 5743 5745 5746 5747 5748 5750 5751 5752 5752 5753 5753 5753
5684 5685 5687 5689 5691 5693 5695 5696 5698 5700 5702 5704 5706 5707 5708 5710 5712 5714 5716 5718 5720 5722 5725 5727 5729 5731 5734 5735 5737 5738 5740 5741 5743 5744 5745 5746 5747 5747
5676 5677 5678 5679 5681 5682 5684 5685 5686 5688 5690 5692 5694 5695 5697 5699 5701 5703 5705 5707 5710 5712 5714 5717 5719 5721 5724 5726 5728 5730 5732 5733 5735 5736 5737 5738 5740 5741
5667 5667 5668 5669 5671 5672 5673 5674 5676 5677 5679 5681 5683 5684 5685 5687 5689 5691 5694 5696 5698 5701 5703 5705 5708 5711 5713 5716 5718 5719 5722 5724 5726 5727 5729 5730 5732 5733
5656 5657 5657 5658 5659 5660 5661 5663 5664 5665 5667 5669 5671 5672 5673 5675 5676 5679 5681 5683 5685 5688 5690 5693 5695 5698 5701 5704 5707 5709 5711 5713 5715 5717 5719 5721 5723 5725
5642 5643 5644 5645 5646 5647 5648 5650 5651 5653 5654 5656 5658 5659 5661 5662 5664 5666 5668 5670 5672 5674 5677 5679 5682 5684 5687 5690 5693 5696 5699 5701 5704 5706 5709 5711 5713 5716
5626 5627 5629 5630 5631 5632 5633 5635 5637 5638 5640 5641 5643 5645 5647 5649 5651 5652 5654 5656 5658 5661 5663 5665 5667 5670 5673 5676 5679 5682 5685 5688 5690 5693 5696 5700 5701 5704
5609 5610 5611 5612 5613 5614 5616 5618 5620 5621 5623 5625 5627 5629 5631 5634 5636 5638 5640 5641 5644 5646 5648 5650 5653 5655 5658 5661 5664 5667 5670 5673 5676 5679 5682 5685 5689 5691